Location: ??
(34.7707°N, 135.6540°E)
Time: 16:57:26
(UTC+00:00)

PAYLOAD A - Visible Passes

Search period start: 04 August 2021 00:00
Search period end: 14 August 2021 00:00
Orbit: 692 x 831 km, 98.4° (Epoch: 03 August)

Date Brightness Start Highest point End Pass type
(mag) Time Alt. Az. Time Alt. Az. Time Alt. Az.
04 Aug 4.4 18:20:54 10° NNE 18:26:10 64° E 18:29:58 18° S visible
05 Aug 5.8 17:43:54 10° NE 17:48:17 26° E 17:51:43 14° SE visible
05 Aug 5.0 19:22:31 10° N 19:27:08 31° WNW 19:31:36 10° SW visible
06 Aug 6.8 17:09:33 10° E 17:10:11 10° E 17:10:48 10° E visible
06 Aug 4.0 18:44:23 10° N 18:49:38 74° WNW 18:53:34 17° SSW visible
07 Aug 4.9 18:06:52 10° NNE 18:11:54 45° E 18:15:18 19° SSE visible
07 Aug 5.6 19:46:48 10° NNW 19:50:23 19° WNW 19:53:52 10° WSW visible
08 Aug 6.3 17:30:20 10° NE 17:33:55 19° E 17:37:03 11° SE visible
08 Aug 4.5 19:08:06 10° N 19:13:02 42° WNW 19:17:10 13° SW visible
09 Aug 4.0 18:30:12 10° NNE 18:35:26 80° ESE 18:38:55 20° S visible
10 Aug 5.5 17:52:58 10° NNE 17:57:36 32° E 18:00:39 17° SSE visible
10 Aug 5.2 19:32:08 10° NNW 19:36:18 25° WNW 19:40:21 10° WSW visible
11 Aug 6.5 17:17:15 10° ENE 17:19:33 13° E 17:21:47 10° ESE visible
11 Aug 4.1 18:53:46 10° N 18:58:52 59° WNW 19:02:30 18° SSW visible
12 Aug 4.5 18:16:06 10° NNE 18:21:11 56° E 18:24:14 22° S visible
13 Aug 6.0 17:39:16 10° NE 17:43:15 23° E 17:45:58 15° SE visible
13 Aug 4.8 19:17:36 10° N 19:22:12 34° WNW 19:26:05 13° SW visible
